Year,Month,Day,Hour,Minute,Value (Times are PST for temperature in C)
2015,03,12,00,00,9.50
2015,03,12,00,01,9.50
2015,03,12,00,02,9.40
2015,03,12,00,03,9.40
2015,03,12,00,04,9.40
2015,03,12,00,05,9.40
2015,03,12,00,06,9.40
2015,03,12,00,07,9.40
2015,03,12,00,08,9.30
2015,03,12,00,09,9.30
2015,03,12,00,10,9.30
2015,03,12,00,11,9.30
2015,03,12,00,12,9.30
2015,03,12,00,13,9.30
2015,03,12,00,14,9.50
2015,03,12,00,15,9.60
2015,03,12,00,16,9.60
2015,03,12,00,17,9.60
2015,03,12,00,18,9.50
2015,03,12,00,19,9.50
2015,03,12,00,20,9.40
2015,03,12,00,21,9.30
2015,03,12,00,22,9.30
2015,03,12,00,23,9.30
2015,03,12,00,24,9.30
2015,03,12,00,25,9.30
2015,03,12,00,26,9.20
2015,03,12,00,27,9.20
2015,03,12,00,28,9.20
2015,03,12,00,29,9.20
2015,03,12,00,30,9.20
2015,03,12,00,31,9.20
2015,03,12,00,32,9.10
2015,03,12,00,33,9.20
2015,03,12,00,34,9.10
2015,03,12,00,35,9.10
2015,03,12,00,36,9.10
2015,03,12,00,37,9.10
2015,03,12,00,38,9.10
2015,03,12,00,39,9.10
2015,03,12,00,40,9.00
2015,03,12,00,41,9.00
2015,03,12,00,42,9.00
2015,03,12,00,43,8.90
2015,03,12,00,44,8.90
2015,03,12,00,45,8.90
2015,03,12,00,46,8.90
2015,03,12,00,47,8.80
2015,03,12,00,48,8.80
2015,03,12,00,49,8.80
2015,03,12,00,50,8.80
2015,03,12,00,51,8.80
2015,03,12,00,52,8.80
2015,03,12,00,53,8.80
2015,03,12,00,54,8.80
2015,03,12,00,55,8.80
2015,03,12,00,56,8.80
2015,03,12,00,57,8.80
2015,03,12,00,58,8.90
2015,03,12,00,59,8.90
2015,03,12,01,00,8.80
2015,03,12,01,01,8.80
2015,03,12,01,02,8.80
2015,03,12,01,03,8.80
2015,03,12,01,04,8.80
2015,03,12,01,05,8.70
2015,03,12,01,06,8.70
2015,03,12,01,07,8.70
2015,03,12,01,08,8.70
2015,03,12,01,09,8.70
2015,03,12,01,10,8.70
2015,03,12,01,11,8.60
2015,03,12,01,12,8.60
2015,03,12,01,13,8.50
2015,03,12,01,14,8.50
2015,03,12,01,15,8.50
2015,03,12,01,16,8.50
2015,03,12,01,17,8.50
2015,03,12,01,18,8.50
2015,03,12,01,19,8.50
2015,03,12,01,20,8.50
2015,03,12,01,21,8.50
2015,03,12,01,22,8.50
2015,03,12,01,23,8.50
2015,03,12,01,24,8.50
2015,03,12,01,25,8.40
2015,03,12,01,26,8.40
2015,03,12,01,27,8.40
2015,03,12,01,28,8.40
2015,03,12,01,29,8.40
2015,03,12,01,30,8.40
2015,03,12,01,31,8.40
2015,03,12,01,32,8.40
2015,03,12,01,33,8.40
2015,03,12,01,34,8.40
2015,03,12,01,35,8.30
2015,03,12,01,36,8.30
2015,03,12,01,37,8.30
2015,03,12,01,38,8.30
2015,03,12,01,39,8.20
2015,03,12,01,40,8.20
2015,03,12,01,41,8.20
2015,03,12,01,42,8.20
2015,03,12,01,43,8.20
2015,03,12,01,44,8.20
2015,03,12,01,45,8.20
2015,03,12,01,46,8.20
2015,03,12,01,47,8.20
2015,03,12,01,48,8.20
2015,03,12,01,49,8.20
2015,03,12,01,50,8.20
2015,03,12,01,51,8.30
2015,03,12,01,52,8.40
2015,03,12,01,53,8.40
2015,03,12,01,54,8.40
2015,03,12,01,55,8.40
2015,03,12,01,56,8.40
2015,03,12,01,57,8.40
2015,03,12,01,58,8.40
2015,03,12,01,59,8.30
2015,03,12,02,00,8.40
2015,03,12,02,01,8.40
2015,03,12,02,02,8.40
2015,03,12,02,03,8.40
2015,03,12,02,04,8.40
2015,03,12,02,05,8.40
2015,03,12,02,06,8.40
2015,03,12,02,07,8.50
2015,03,12,02,08,8.60
2015,03,12,02,09,8.60
2015,03,12,02,10,8.60
2015,03,12,02,11,8.60
2015,03,12,02,12,8.60
2015,03,12,02,13,8.70
2015,03,12,02,14,8.70
2015,03,12,02,15,8.70
2015,03,12,02,16,8.70
2015,03,12,02,17,8.60
2015,03,12,02,18,8.50
2015,03,12,02,19,8.50
2015,03,12,02,20,8.40
2015,03,12,02,21,8.40
2015,03,12,02,22,8.40
2015,03,12,02,23,8.40
2015,03,12,02,24,8.40
2015,03,12,02,25,8.30
2015,03,12,02,26,8.20
2015,03,12,02,27,8.10
2015,03,12,02,28,8.10
2015,03,12,02,29,8.10
2015,03,12,02,30,8.20
2015,03,12,02,31,8.20
2015,03,12,02,32,8.30
2015,03,12,02,33,8.30
2015,03,12,02,34,8.30
2015,03,12,02,35,8.30
2015,03,12,02,36,8.20
2015,03,12,02,37,8.10
2015,03,12,02,38,8.10
2015,03,12,02,39,8.10
2015,03,12,02,40,8.00
2015,03,12,02,41,8.00
2015,03,12,02,42,7.90
2015,03,12,02,43,7.90
2015,03,12,02,44,7.80
2015,03,12,02,45,7.80
2015,03,12,02,46,7.90
2015,03,12,02,47,8.00
2015,03,12,02,48,8.00
2015,03,12,02,49,8.10
2015,03,12,02,50,8.10
2015,03,12,02,51,8.10
2015,03,12,02,52,8.10
2015,03,12,02,53,8.00
2015,03,12,02,54,8.00
2015,03,12,02,55,8.10
2015,03,12,02,56,8.20
2015,03,12,02,57,8.20
2015,03,12,02,58,8.20
2015,03,12,02,59,8.30
2015,03,12,03,00,8.30
2015,03,12,03,01,8.30
2015,03,12,03,02,8.30
2015,03,12,03,03,8.30
2015,03,12,03,06,8.20
2015,03,12,03,07,8.10
2015,03,12,03,08,8.10
2015,03,12,03,09,8.10
2015,03,12,03,10,8.00
2015,03,12,03,11,8.00
2015,03,12,03,12,7.90
2015,03,12,03,13,7.90
2015,03,12,03,14,7.90
2015,03,12,03,15,7.90
2015,03,12,03,16,7.90
2015,03,12,03,17,7.90
2015,03,12,03,18,7.90
2015,03,12,03,19,7.90
2015,03,12,03,20,7.90
2015,03,12,03,21,7.90
2015,03,12,03,22,7.90
2015,03,12,03,23,7.90
2015,03,12,03,24,7.90
2015,03,12,03,25,7.90
2015,03,12,03,26,8.00
2015,03,12,03,27,8.10
2015,03,12,03,28,8.10
2015,03,12,03,29,8.10
2015,03,12,03,30,8.20
2015,03,12,03,31,8.20
2015,03,12,03,32,8.30
2015,03,12,03,33,8.30
2015,03,12,03,34,8.30
2015,03,12,03,35,8.30
2015,03,12,03,36,8.40
2015,03,12,03,37,8.40
2015,03,12,03,38,8.50
2015,03,12,03,39,8.60
2015,03,12,03,40,8.60
2015,03,12,03,41,8.70
2015,03,12,03,42,8.70
2015,03,12,03,43,8.70
2015,03,12,03,44,8.80
2015,03,12,03,45,8.80
2015,03,12,03,46,8.80
2015,03,12,03,47,8.80
2015,03,12,03,48,8.70
2015,03,12,03,49,8.70
2015,03,12,03,50,8.70
2015,03,12,03,51,8.70
2015,03,12,03,52,8.70
2015,03,12,03,53,8.70
2015,03,12,03,54,8.80
2015,03,12,03,55,8.80
2015,03,12,03,56,8.70
2015,03,12,03,57,8.70
2015,03,12,03,58,8.70
2015,03,12,03,59,8.70
2015,03,12,04,00,8.60
2015,03,12,04,01,8.60
2015,03,12,04,02,8.50
2015,03,12,04,03,8.40
2015,03,12,04,04,8.40
2015,03,12,04,05,8.30
2015,03,12,04,06,8.30
2015,03,12,04,07,8.30
2015,03,12,04,08,8.30
2015,03,12,04,09,8.30
2015,03,12,04,10,8.30
2015,03,12,04,11,8.30
2015,03,12,04,12,8.30
2015,03,12,04,13,8.30
2015,03,12,04,14,8.30
2015,03,12,04,15,8.30
2015,03,12,04,16,8.30
2015,03,12,04,17,8.40
2015,03,12,04,18,8.30
2015,03,12,04,19,8.30
2015,03,12,04,20,8.30
2015,03,12,04,21,8.30
2015,03,12,04,22,8.30
2015,03,12,04,23,8.30
2015,03,12,04,24,8.30
2015,03,12,04,25,8.30
2015,03,12,04,26,8.20
2015,03,12,04,27,8.20
2015,03,12,04,28,8.20
2015,03,12,04,29,8.10
2015,03,12,04,30,8.10
2015,03,12,04,31,8.00
2015,03,12,04,32,7.90
2015,03,12,04,33,8.00
2015,03,12,04,34,8.00
2015,03,12,04,35,8.00
2015,03,12,04,36,8.00
2015,03,12,04,37,7.90
2015,03,12,04,38,7.90
2015,03,12,04,39,7.90
2015,03,12,04,40,7.80
2015,03,12,04,41,7.80
2015,03,12,04,42,7.80
2015,03,12,04,43,7.70
2015,03,12,04,44,7.70
2015,03,12,04,45,7.60
2015,03,12,04,46,7.60
2015,03,12,04,47,7.50
2015,03,12,04,48,7.50
2015,03,12,04,49,7.50
2015,03,12,04,50,7.50
2015,03,12,04,51,7.50
2015,03,12,04,52,7.50
2015,03,12,04,53,7.60
2015,03,12,04,54,7.50
2015,03,12,04,55,7.50
2015,03,12,04,56,7.50
2015,03,12,04,57,7.40
2015,03,12,04,58,7.40
2015,03,12,04,59,7.30
2015,03,12,05,00,7.20
2015,03,12,05,01,7.20
2015,03,12,05,02,7.20
2015,03,12,05,03,7.20
2015,03,12,05,04,7.20
2015,03,12,05,05,7.20
2015,03,12,05,06,7.20
2015,03,12,05,07,7.20
2015,03,12,05,08,7.40
2015,03,12,05,09,7.60
2015,03,12,05,10,7.90
2015,03,12,05,11,8.00
2015,03,12,05,12,8.20
2015,03,12,05,13,8.30
2015,03,12,05,14,8.40
2015,03,12,05,15,8.70
2015,03,12,05,16,8.90
2015,03,12,05,17,9.00
2015,03,12,05,18,9.10
2015,03,12,05,19,9.20
2015,03,12,05,20,9.30
2015,03,12,05,21,9.20
2015,03,12,05,22,9.20
2015,03,12,05,23,9.20
2015,03,12,05,24,9.20
2015,03,12,05,25,9.20
2015,03,12,05,26,9.10
2015,03,12,05,27,9.10
2015,03,12,05,28,9.10
2015,03,12,05,29,9.10
2015,03,12,05,30,9.10
2015,03,12,05,31,9.00
2015,03,12,05,32,8.90
2015,03,12,05,33,8.80
2015,03,12,05,34,8.80
2015,03,12,05,35,8.70
2015,03,12,05,36,8.70
2015,03,12,05,37,8.70
2015,03,12,05,38,8.70
2015,03,12,05,39,8.60
2015,03,12,05,40,8.60
2015,03,12,05,41,8.60
2015,03,12,05,42,8.60
2015,03,12,05,43,8.60
2015,03,12,05,44,8.60
2015,03,12,05,45,8.50
2015,03,12,05,46,8.50
2015,03,12,05,47,8.50
2015,03,12,05,48,8.40
2015,03,12,05,49,8.40
2015,03,12,05,50,8.40
2015,03,12,05,51,8.50
2015,03,12,05,52,8.50
2015,03,12,05,53,8.60
2015,03,12,05,54,8.60
2015,03,12,05,55,8.60
2015,03,12,05,56,8.60
2015,03,12,05,57,8.50
2015,03,12,05,58,8.50
2015,03,12,05,59,8.40
2015,03,12,06,00,8.30
2015,03,12,06,01,8.30
2015,03,12,06,02,8.20
2015,03,12,06,03,8.20
2015,03,12,06,04,8.10
2015,03,12,06,05,8.10
2015,03,12,06,06,8.10
2015,03,12,06,07,8.00
2015,03,12,06,08,8.00
2015,03,12,06,09,7.90
2015,03,12,06,10,7.90
2015,03,12,06,11,7.90
2015,03,12,06,12,7.80
2015,03,12,06,13,7.80
2015,03,12,06,14,7.70
2015,03,12,06,15,7.70
2015,03,12,06,16,7.80
2015,03,12,06,17,7.80
2015,03,12,06,18,7.80
2015,03,12,06,19,7.80
2015,03,12,06,20,7.80
2015,03,12,06,21,7.80
2015,03,12,06,22,7.80
2015,03,12,06,23,7.80
2015,03,12,06,24,7.80
2015,03,12,06,25,7.70
2015,03,12,06,26,7.60
2015,03,12,06,27,7.60
2015,03,12,06,28,7.50
2015,03,12,06,29,7.50
2015,03,12,06,30,7.40
2015,03,12,06,31,7.40
2015,03,12,06,32,7.40
2015,03,12,06,33,7.40
2015,03,12,06,34,7.30
2015,03,12,06,35,7.30
2015,03,12,06,36,7.30
2015,03,12,06,37,7.30
2015,03,12,06,38,7.30
2015,03,12,06,39,7.30
2015,03,12,06,40,7.30
2015,03,12,06,41,7.30
2015,03,12,06,42,7.30
2015,03,12,06,43,7.30
2015,03,12,06,44,7.30
2015,03,12,06,45,7.40
2015,03,12,06,46,7.40
2015,03,12,06,47,7.40
2015,03,12,06,48,7.50
2015,03,12,06,49,7.60
2015,03,12,06,50,7.60
2015,03,12,06,51,7.60
2015,03,12,06,52,7.60
2015,03,12,06,53,7.70
2015,03,12,06,54,7.70
2015,03,12,06,55,7.70
2015,03,12,06,56,7.70
2015,03,12,06,57,7.70
2015,03,12,06,58,7.80
2015,03,12,06,59,7.80
2015,03,12,07,00,7.90
2015,03,12,07,01,7.90
2015,03,12,07,02,7.90
2015,03,12,07,03,8.00
2015,03,12,07,04,8.00
2015,03,12,07,05,8.00
2015,03,12,07,06,8.00
2015,03,12,07,07,8.00
2015,03,12,07,08,8.00
2015,03,12,07,09,8.10
2015,03,12,07,10,8.10
2015,03,12,07,11,8.10
2015,03,12,07,12,8.20
2015,03,12,07,13,8.20
2015,03,12,07,14,8.20
2015,03,12,07,15,8.20
2015,03,12,07,16,8.20
2015,03,12,07,17,8.20
2015,03,12,07,18,8.20
2015,03,12,07,19,8.30
2015,03,12,07,20,8.30
2015,03,12,07,21,8.30
2015,03,12,07,22,8.30
2015,03,12,07,23,8.30
2015,03,12,07,24,8.40
2015,03,12,07,25,8.40
2015,03,12,07,26,8.50
2015,03,12,07,27,8.50
2015,03,12,07,28,8.60
2015,03,12,07,29,8.60
2015,03,12,07,30,8.70
2015,03,12,07,31,8.80
2015,03,12,07,32,8.80
2015,03,12,07,33,8.90
2015,03,12,07,34,8.90
2015,03,12,07,35,8.90
2015,03,12,07,36,8.90
2015,03,12,07,37,8.80
2015,03,12,07,38,8.80
2015,03,12,07,39,8.80
2015,03,12,07,40,8.70
2015,03,12,07,41,8.70
2015,03,12,07,42,8.70
2015,03,12,07,43,8.70
2015,03,12,07,44,8.70
2015,03,12,07,45,8.60
2015,03,12,07,46,8.60
2015,03,12,07,47,8.60
2015,03,12,07,48,8.50
2015,03,12,07,49,8.50
2015,03,12,07,50,8.50
2015,03,12,07,51,8.50
2015,03,12,07,52,8.50
2015,03,12,07,53,8.60
2015,03,12,07,54,8.60
2015,03,12,07,55,8.60
2015,03,12,07,56,8.70
2015,03,12,07,57,8.70
2015,03,12,07,58,8.70
2015,03,12,07,59,8.80
2015,03,12,08,00,8.80
2015,03,12,08,01,8.90
2015,03,12,08,02,8.90
2015,03,12,08,03,8.90
2015,03,12,08,04,8.90
2015,03,12,08,05,8.90
2015,03,12,08,06,8.90
2015,03,12,08,07,8.90
2015,03,12,08,08,8.90
2015,03,12,08,09,8.90
2015,03,12,08,10,8.90
2015,03,12,08,11,8.90
2015,03,12,08,12,8.90
2015,03,12,08,13,8.90
2015,03,12,08,14,8.90
2015,03,12,08,15,8.90
2015,03,12,08,16,8.90
2015,03,12,08,17,8.90
2015,03,12,08,18,8.90
2015,03,12,08,19,8.90
2015,03,12,08,20,8.90
2015,03,12,08,21,8.90
2015,03,12,08,22,8.90
2015,03,12,08,23,8.90
2015,03,12,08,24,8.90
2015,03,12,08,25,9.00
2015,03,12,08,26,9.00
2015,03,12,08,27,9.10
2015,03,12,08,28,9.10
2015,03,12,08,29,9.10
2015,03,12,08,30,9.20
2015,03,12,08,31,9.20
2015,03,12,08,32,9.20
2015,03,12,08,33,9.30
2015,03,12,08,34,9.30
2015,03,12,08,35,9.30
2015,03,12,08,36,9.40
2015,03,12,08,37,9.40
2015,03,12,08,38,9.40
2015,03,12,08,39,9.40
2015,03,12,08,40,9.50
2015,03,12,08,41,9.50
2015,03,12,08,42,9.50
2015,03,12,08,43,9.60
2015,03,12,08,44,9.60
2015,03,12,08,45,9.60
2015,03,12,08,46,9.60
2015,03,12,08,47,9.60
2015,03,12,08,48,9.60
2015,03,12,08,49,9.60
2015,03,12,08,50,9.60
2015,03,12,08,51,9.60
2015,03,12,08,52,9.50
2015,03,12,08,53,9.40
2015,03,12,08,54,9.40
2015,03,12,08,55,9.40
2015,03,12,08,56,9.40
2015,03,12,08,57,9.40
2015,03,12,08,58,9.40
2015,03,12,08,59,9.40
2015,03,12,09,00,9.40
2015,03,12,09,01,9.30
2015,03,12,09,02,9.30
2015,03,12,09,03,9.30
2015,03,12,09,04,9.30
2015,03,12,09,05,9.30
2015,03,12,09,06,9.30
2015,03,12,09,07,9.20
2015,03,12,09,08,9.20
2015,03,12,09,09,9.20
2015,03,12,09,10,9.20
2015,03,12,09,11,9.20
2015,03,12,09,12,9.20
2015,03,12,09,13,9.20
2015,03,12,09,14,9.20
2015,03,12,09,15,9.20
2015,03,12,09,16,9.20
2015,03,12,09,17,9.20
2015,03,12,09,18,9.20
2015,03,12,09,19,9.20
2015,03,12,09,20,9.20
2015,03,12,09,21,9.30
2015,03,12,09,22,9.30
2015,03,12,09,23,9.30
2015,03,12,09,24,9.30
2015,03,12,09,25,9.30
2015,03,12,09,26,9.30
2015,03,12,09,27,9.40
2015,03,12,09,28,9.50
2015,03,12,09,29,9.50
2015,03,12,09,30,9.60
2015,03,12,09,31,9.60
2015,03,12,09,32,9.70
2015,03,12,09,33,9.80
2015,03,12,09,34,9.90
2015,03,12,09,35,10.00
2015,03,12,09,36,10.10
2015,03,12,09,37,10.20
2015,03,12,09,38,10.20
2015,03,12,09,39,10.30
2015,03,12,09,40,10.40
2015,03,12,09,41,10.40
2015,03,12,09,42,10.50
2015,03,12,09,43,10.50
2015,03,12,09,44,10.60
2015,03,12,09,45,10.60
2015,03,12,09,46,10.70
2015,03,12,09,47,10.70
2015,03,12,09,48,10.70
2015,03,12,09,49,10.70
2015,03,12,09,50,10.80
2015,03,12,09,51,10.80
2015,03,12,09,52,10.80
2015,03,12,09,53,10.70
2015,03,12,09,54,10.70
2015,03,12,09,55,10.70
2015,03,12,09,56,10.60
2015,03,12,09,57,10.50
2015,03,12,09,58,10.50
2015,03,12,09,59,10.40
2015,03,12,10,00,10.30
2015,03,12,10,01,10.20
2015,03,12,10,02,10.20
2015,03,12,10,03,10.10
2015,03,12,10,04,10.10
2015,03,12,10,05,10.00
2015,03,12,10,06,10.00
2015,03,12,10,07,10.00
2015,03,12,10,08,9.90
2015,03,12,10,09,9.90
2015,03,12,10,10,9.90
2015,03,12,10,11,9.90
2015,03,12,10,12,9.90
2015,03,12,10,13,9.90
2015,03,12,10,14,9.90
2015,03,12,10,15,9.90
2015,03,12,10,16,9.90
2015,03,12,10,17,9.90
2015,03,12,10,18,9.90
2015,03,12,10,19,9.90
2015,03,12,10,20,9.90
2015,03,12,10,21,9.90
2015,03,12,10,22,9.90
2015,03,12,10,23,9.90
2015,03,12,10,24,9.90
2015,03,12,10,25,9.90
2015,03,12,10,26,10.00
2015,03,12,10,27,10.00
2015,03,12,10,28,10.10
2015,03,12,10,29,10.10
2015,03,12,10,30,10.10
2015,03,12,10,31,10.10
2015,03,12,10,32,10.10
2015,03,12,10,33,10.20
2015,03,12,10,34,10.20
2015,03,12,10,35,10.20
2015,03,12,10,36,10.20
2015,03,12,10,37,10.20
2015,03,12,10,38,10.20
2015,03,12,10,39,10.20
2015,03,12,10,40,10.30
2015,03,12,10,41,10.30
2015,03,12,10,42,10.30
2015,03,12,10,43,10.30
2015,03,12,10,44,10.30
2015,03,12,10,45,10.30
2015,03,12,10,46,10.30
2015,03,12,10,47,10.30
2015,03,12,10,48,10.30
2015,03,12,10,49,10.30
2015,03,12,10,50,10.40
2015,03,12,10,51,10.40
2015,03,12,10,52,10.50
2015,03,12,10,53,10.50
2015,03,12,10,54,10.50
2015,03,12,10,55,10.60
2015,03,12,10,56,10.60
2015,03,12,10,57,10.60
2015,03,12,10,58,10.60
2015,03,12,10,59,10.70
2015,03,12,11,00,10.70
2015,03,12,11,01,10.80
2015,03,12,11,02,10.80
2015,03,12,11,03,10.90
2015,03,12,11,04,10.90
2015,03,12,11,05,11.00
2015,03,12,11,06,11.10
2015,03,12,11,07,11.10
2015,03,12,11,08,11.20
2015,03,12,11,09,11.30
2015,03,12,11,10,11.40
2015,03,12,11,11,11.50
2015,03,12,11,12,11.60
2015,03,12,11,13,11.70
2015,03,12,11,14,11.80
2015,03,12,11,15,11.80
2015,03,12,11,16,11.90
2015,03,12,11,17,11.90
2015,03,12,11,18,12.00
2015,03,12,11,19,12.10
2015,03,12,11,20,12.20
2015,03,12,11,21,12.20
2015,03,12,11,22,12.30
2015,03,12,11,23,12.30
2015,03,12,11,24,12.40
2015,03,12,11,25,12.40
2015,03,12,11,26,12.50
2015,03,12,11,27,12.60
2015,03,12,11,28,12.60
2015,03,12,11,29,12.70
2015,03,12,11,30,12.70
2015,03,12,11,31,12.80
2015,03,12,11,32,12.90
2015,03,12,11,33,13.00
2015,03,12,11,34,13.00
2015,03,12,11,35,13.10
2015,03,12,11,36,13.10
2015,03,12,11,37,13.10
2015,03,12,11,38,13.10
2015,03,12,11,39,13.00
2015,03,12,11,40,13.00
2015,03,12,11,41,12.90
2015,03,12,11,42,12.80
2015,03,12,11,43,12.80
2015,03,12,11,44,12.80
2015,03,12,11,45,12.80
2015,03,12,11,46,12.70
2015,03,12,11,47,12.70
2015,03,12,11,48,12.70
2015,03,12,11,49,12.70
2015,03,12,11,50,12.70
2015,03,12,11,51,12.80
2015,03,12,11,52,12.90
2015,03,12,11,53,13.00
2015,03,12,11,54,13.10
2015,03,12,11,55,13.20
2015,03,12,11,56,13.20
2015,03,12,11,57,13.20
2015,03,12,11,58,13.20
2015,03,12,11,59,13.20
2015,03,12,12,00,13.20
2015,03,12,12,01,13.30
2015,03,12,12,02,13.40
2015,03,12,12,03,13.40
2015,03,12,12,04,13.40
2015,03,12,12,05,13.40
2015,03,12,12,06,13.30
2015,03,12,12,07,13.20
2015,03,12,12,08,13.10
2015,03,12,12,09,12.90
2015,03,12,12,10,12.80
2015,03,12,12,11,12.80
2015,03,12,12,12,12.70
2015,03,12,12,13,12.70
2015,03,12,12,14,12.70
2015,03,12,12,15,12.70
2015,03,12,12,16,12.70
2015,03,12,12,17,12.70
2015,03,12,12,18,12.70
2015,03,12,12,19,12.80
2015,03,12,12,20,12.80
2015,03,12,12,21,12.80
2015,03,12,12,22,12.90
2015,03,12,12,23,12.90
2015,03,12,12,24,13.00
2015,03,12,12,25,13.00
2015,03,12,12,26,13.10
2015,03,12,12,27,13.20
2015,03,12,12,28,13.20
2015,03,12,12,29,13.20
2015,03,12,12,30,13.20
2015,03,12,12,31,13.20
2015,03,12,12,32,13.20
2015,03,12,12,33,13.20
2015,03,12,12,34,13.30
2015,03,12,12,35,13.40
2015,03,12,12,36,13.50
2015,03,12,12,37,13.60
2015,03,12,12,38,13.70
2015,03,12,12,39,13.80
2015,03,12,12,40,13.90
2015,03,12,12,41,14.00
2015,03,12,12,42,14.10
2015,03,12,12,43,14.20
2015,03,12,12,44,14.30
2015,03,12,12,45,14.40
2015,03,12,12,46,14.40
2015,03,12,12,47,14.40
2015,03,12,12,48,14.40
2015,03,12,12,49,14.40
2015,03,12,12,50,14.50
2015,03,12,12,51,14.50
2015,03,12,12,52,14.50
2015,03,12,12,53,14.60
2015,03,12,12,54,14.60
2015,03,12,12,55,14.60
2015,03,12,12,56,14.60
2015,03,12,12,57,14.60
2015,03,12,12,58,14.60
2015,03,12,12,59,14.50
2015,03,12,13,00,14.40
2015,03,12,13,01,14.30
2015,03,12,13,02,14.20
2015,03,12,13,03,14.20
2015,03,12,13,04,14.10
2015,03,12,13,05,14.10
2015,03,12,13,06,14.10
2015,03,12,13,07,14.20
2015,03,12,13,08,14.20
2015,03,12,13,09,14.20
2015,03,12,13,10,14.30
2015,03,12,13,11,14.30
2015,03,12,13,12,14.40
2015,03,12,13,13,14.40
2015,03,12,13,14,14.40
2015,03,12,13,15,14.40
2015,03,12,13,16,14.40
2015,03,12,13,17,14.40
2015,03,12,13,18,14.40
2015,03,12,13,19,14.40
2015,03,12,13,20,14.50
2015,03,12,13,21,14.50
2015,03,12,13,22,14.40
2015,03,12,13,23,14.50
2015,03,12,13,24,14.60
2015,03,12,13,25,14.60
2015,03,12,13,26,14.70
2015,03,12,13,27,14.70
2015,03,12,13,28,14.60
2015,03,12,13,29,14.60
2015,03,12,13,30,14.60
2015,03,12,13,31,14.60
2015,03,12,13,32,14.50
2015,03,12,13,33,14.50
2015,03,12,13,34,14.50
2015,03,12,13,35,14.60
2015,03,12,13,36,14.60
2015,03,12,13,37,14.80
2015,03,12,13,38,14.90
2015,03,12,13,39,15.00
2015,03,12,13,40,15.00
2015,03,12,13,41,15.20
2015,03,12,13,42,15.30
2015,03,12,13,43,15.30
2015,03,12,13,44,15.30
2015,03,12,13,45,15.20
2015,03,12,13,46,15.00
2015,03,12,13,47,15.00
2015,03,12,13,48,15.00
2015,03,12,13,49,14.90
2015,03,12,13,50,14.80
2015,03,12,13,51,14.80
2015,03,12,13,52,14.80
2015,03,12,13,53,14.80
2015,03,12,13,54,14.80
2015,03,12,13,55,14.80
2015,03,12,13,56,14.80
2015,03,12,13,57,14.70
2015,03,12,13,58,14.70
2015,03,12,13,59,14.70
2015,03,12,14,00,14.70
2015,03,12,14,01,14.70
2015,03,12,14,02,14.80
2015,03,12,14,03,14.80
2015,03,12,14,04,14.80
2015,03,12,14,05,14.80
2015,03,12,14,06,14.80
2015,03,12,14,07,14.90
2015,03,12,14,08,14.80
2015,03,12,14,09,14.70
2015,03,12,14,10,14.60
2015,03,12,14,11,14.50
2015,03,12,14,12,14.50
2015,03,12,14,13,14.50
2015,03,12,14,14,14.50
2015,03,12,14,15,14.50
2015,03,12,14,16,14.40
2015,03,12,14,17,14.50
2015,03,12,14,18,14.50
2015,03,12,14,19,14.50
2015,03,12,14,20,14.50
2015,03,12,14,21,14.40
2015,03,12,14,22,14.50
2015,03,12,14,23,14.50
2015,03,12,14,24,14.60
2015,03,12,14,25,14.60
2015,03,12,14,26,14.70
2015,03,12,14,27,14.70
2015,03,12,14,28,14.80
2015,03,12,14,29,15.00
2015,03,12,14,30,15.00
2015,03,12,14,31,15.00
2015,03,12,14,32,14.90
2015,03,12,14,33,14.80
2015,03,12,14,34,14.80
2015,03,12,14,35,14.80
2015,03,12,14,36,14.90
2015,03,12,14,37,14.90
2015,03,12,14,38,14.90
2015,03,12,14,39,14.90
2015,03,12,14,40,15.00
2015,03,12,14,41,15.00
2015,03,12,14,42,15.00
2015,03,12,14,43,15.10
2015,03,12,14,44,15.20
2015,03,12,14,45,15.20
2015,03,12,14,46,15.10
2015,03,12,14,47,15.10
2015,03,12,14,48,15.00
2015,03,12,14,49,15.00
2015,03,12,14,50,15.00
2015,03,12,14,51,14.90
2015,03,12,14,52,14.80
2015,03,12,14,53,14.80
2015,03,12,14,54,14.80
2015,03,12,14,55,14.70
2015,03,12,14,56,14.70
2015,03,12,14,57,14.70
2015,03,12,14,58,14.70
2015,03,12,14,59,14.60
2015,03,12,15,00,14.60
2015,03,12,15,01,14.50
2015,03,12,15,02,14.50
2015,03,12,15,03,14.50
2015,03,12,15,04,14.50
2015,03,12,15,05,14.50
2015,03,12,15,06,14.50
2015,03,12,15,07,14.40
2015,03,12,15,08,14.40
2015,03,12,15,09,14.40
2015,03,12,15,10,14.40
2015,03,12,15,11,14.40
2015,03,12,15,12,14.30
2015,03,12,15,13,14.40
2015,03,12,15,14,14.40
2015,03,12,15,15,14.40
2015,03,12,15,16,14.40
2015,03,12,15,17,14.40
2015,03,12,15,18,14.40
2015,03,12,15,19,14.40
2015,03,12,15,20,14.40
2015,03,12,15,21,14.40
2015,03,12,15,22,14.40
2015,03,12,15,23,14.50
2015,03,12,15,24,14.50
2015,03,12,15,25,14.60
2015,03,12,15,26,14.60
2015,03,12,15,27,14.70
2015,03,12,15,28,14.70
2015,03,12,15,29,14.80
2015,03,12,15,30,14.80
2015,03,12,15,31,14.80
2015,03,12,15,32,14.80
2015,03,12,15,33,14.80
2015,03,12,15,34,14.80
2015,03,12,15,35,14.80
2015,03,12,15,36,14.80
2015,03,12,15,37,14.90
2015,03,12,15,38,15.00
2015,03,12,15,39,15.00
2015,03,12,15,40,15.00
2015,03,12,15,41,15.00
2015,03,12,15,42,15.00
2015,03,12,15,43,15.00
2015,03,12,15,44,15.00
2015,03,12,15,45,15.00
2015,03,12,15,46,15.00
2015,03,12,15,47,15.00
2015,03,12,15,48,15.00
2015,03,12,15,49,15.00
2015,03,12,15,50,15.00
2015,03,12,15,51,15.00
2015,03,12,15,52,15.00
2015,03,12,15,53,15.00
2015,03,12,15,54,15.00
2015,03,12,15,55,15.00
2015,03,12,15,56,15.00
2015,03,12,15,57,15.00
2015,03,12,15,58,15.00
2015,03,12,15,59,15.00
2015,03,12,16,00,15.00
2015,03,12,16,01,15.00
2015,03,12,16,02,15.00
2015,03,12,16,03,15.00
2015,03,12,16,04,15.00
2015,03,12,16,05,15.00
2015,03,12,16,06,15.00
2015,03,12,16,07,15.00
2015,03,12,16,08,15.00
2015,03,12,16,09,15.00
2015,03,12,16,10,15.00
2015,03,12,16,11,15.00
2015,03,12,16,12,15.00
2015,03,12,16,13,15.10
2015,03,12,16,14,15.20
2015,03,12,16,15,15.20
2015,03,12,16,16,15.30
2015,03,12,16,17,15.30
2015,03,12,16,18,15.40
2015,03,12,16,19,15.40
2015,03,12,16,20,15.40
2015,03,12,16,21,15.40
2015,03,12,16,22,15.40
2015,03,12,16,23,15.50
2015,03,12,16,24,15.50
2015,03,12,16,25,15.60
2015,03,12,16,26,15.60
2015,03,12,16,27,15.70
2015,03,12,16,28,15.70
2015,03,12,16,29,15.80
2015,03,12,16,30,15.80
2015,03,12,16,31,15.80
2015,03,12,16,32,15.80
2015,03,12,16,33,15.80
2015,03,12,16,34,15.80
2015,03,12,16,35,15.80
2015,03,12,16,36,15.80
2015,03,12,16,37,15.80
2015,03,12,16,38,15.80
2015,03,12,16,39,15.90
2015,03,12,16,40,15.90
2015,03,12,16,41,15.90
2015,03,12,16,42,16.00
2015,03,12,16,43,16.00
2015,03,12,16,44,16.10
2015,03,12,16,45,16.20
2015,03,12,16,46,16.20
2015,03,12,16,47,16.30
2015,03,12,16,48,16.40
2015,03,12,16,49,16.40
2015,03,12,16,50,16.40
2015,03,12,16,51,16.40
2015,03,12,16,52,16.40
2015,03,12,16,53,16.40
2015,03,12,16,54,16.40
2015,03,12,16,55,16.50
2015,03,12,16,56,16.50
2015,03,12,16,57,16.60
2015,03,12,16,58,16.60
2015,03,12,16,59,16.60
2015,03,12,17,00,16.60
2015,03,12,17,01,16.70
2015,03,12,17,02,16.70
2015,03,12,17,03,16.70
2015,03,12,17,04,16.70
2015,03,12,17,05,16.80
2015,03,12,17,06,16.80
2015,03,12,17,07,16.80
2015,03,12,17,08,16.80
2015,03,12,17,09,16.80
2015,03,12,17,10,16.80
2015,03,12,17,11,16.80
2015,03,12,17,12,16.70
2015,03,12,17,13,16.70
2015,03,12,17,14,16.60
2015,03,12,17,15,16.60
2015,03,12,17,16,16.60
2015,03,12,17,17,16.50
2015,03,12,17,18,16.50
2015,03,12,17,19,16.50
2015,03,12,17,20,16.60
2015,03,12,17,21,16.60
2015,03,12,17,22,16.60
2015,03,12,17,23,16.60
2015,03,12,17,24,16.50
2015,03,12,17,25,16.40
2015,03,12,17,26,16.40
2015,03,12,17,27,16.30
2015,03,12,17,28,16.30
2015,03,12,17,29,16.20
2015,03,12,17,30,16.20
2015,03,12,17,31,16.10
2015,03,12,17,32,16.10
2015,03,12,17,33,16.10
2015,03,12,17,34,16.10
2015,03,12,17,35,16.10
2015,03,12,17,36,16.10
2015,03,12,17,37,16.10
2015,03,12,17,38,16.10
2015,03,12,17,39,16.20
2015,03,12,17,40,16.20
2015,03,12,17,41,16.20
2015,03,12,17,42,16.30
2015,03,12,17,43,16.30
2015,03,12,17,44,16.40
2015,03,12,17,45,16.50
2015,03,12,17,46,16.60
2015,03,12,17,47,16.60